GFSCGP_925_spd_045.txt.gz
Wind_Speed
3 3 5 6 3 7 5 1 4 4 1 3 7 6 7 11 13 14 15 15 15 15 12 16 17 16 16 16 18 19 17 12 7 2 4 6 12 5 1 2 2 2 2 7
2 4 3 2 4 5 2 2 3 3 5 2 2 3 3 8 9 11 12 13 14 12 12 13 16 16 16 14 15 15 13 8 8 5 5 2 10 5 3 2 3 7 3 5
3 3 4 4 4 5 3 3 2 2 3 3 2 1 2 1 8 4 11 15 15 16 14 12 14 16 14 14 14 13 12 9 10 6 9 10 11 11 6 6 8 6 3 3
3 1 3 2 4 7 4 6 3 1 1 2 5 2 4 3 7 6 7 14 17 16 14 12 15 15 14 11 11 13 13 12 11 10 9 12 11 7 5 7 7 4 1 2
3 5 4 2 3 9 3 3 4 3 3 2 3 3 1 1 4 7 6 7 14 11 13 15 16 13 13 11 14 15 13 13 12 10 11 11 8 8 10 7 5 2 1 3
2 1 4 2 3 3 11 5 5 3 1 3 1 2 2 3 4 8 7 5 7 8 12 11 13 14 11 10 11 13 13 15 13 15 14 9 10 13 11 8 4 2 2 3
2 4 3 3 3 5 3 4 1 2 4 2 2 3 4 3 6 8 11 9 5 8 11 11 12 16 15 13 12 11 13 15 13 15 12 10 13 12 10 8 5 4 4 5
7 6 6 5 6 4 4 4 3 3 3 3 2 3 1 2 5 6 7 9 4 6 9 10 10 12 12 12 14 12 13 15 14 11 10 8 10 8 10 9 7 7 6 7
5 5 2 3 2 2 5 4 4 6 1 3 1 3 8 3 2 3 4 1 3 5 6 8 9 10 11 9 10 8 11 14 13 9 9 12 11 7 10 10 9 8 7 8
4 2 1 2 4 8 2 9 4 1 5 4 2 3 3 3 5 1 2 0 1 2 3 6 10 11 9 9 8 7 7 7 8 10 11 14 11 10 10 12 12 11 10 10
7 3 3 2 3 7 4 4 5 4 2 4 3 3 5 6 3 1 3 3 4 6 4 7 11 13 11 9 8 7 7 6 8 14 15 14 13 11 9 11 13 12 10 9
7 3 6 8 1 2 1 5 6 5 5 0 2 4 1 4 2 2 1 4 7 7 3 6 9 11 12 10 9 8 10 9 8 13 15 13 11 10 11 12 14 12 11 10
9 3 4 2 3 3 4 4 3 7 2 6 5 2 3 3 5 4 3 5 4 5 6 7 11 12 14 13 12 11 10 10 15 13 12 11 11 9 11 12 12 12 11 11
8 4 5 8 3 3 4 5 7 3 4 7 5 3 4 4 7 6 4 3 3 4 3 8 10 13 12 13 12 12 12 12 12 11 12 11 9 7 8 10 12 12 10 10
6 8 6 4 3 3 5 9 9 6 7 6 6 6 3 5 2 5 4 2 4 4 4 5 9 10 12 13 11 10 11 17 19 12 12 11 9 8 8 7 9 11 9 9
1 4 6 4 5 8 6 8 7 2 6 3 3 4 5 4 7 7 3 1 3 2 3 5 10 14 14 16 17 16 14 18 19 16 14 14 14 11 9 8 8 10 10 8
2 5 4 5 3 8 5 9 9 4 5 4 6 3 3 5 6 5 3 2 4 5 3 2 8 13 15 14 13 10 11 14 12 7 11 15 15 15 11 9 9 7 11 9
5 4 2 4 6 7 3 2 3 4 5 8 2 2 5 11 8 4 2 0 4 6 6 0 4 11 10 7 10 10 13 15 13 9 13 15 19 18 14 10 10 10 11 10
1 4 4 4 5 2 1 3 4 4 4 5 4 4 9 9 12 10 6 5 5 4 5 6 9 8 9 10 10 10 12 13 13 11 15 17 18 17 15 13 13 11 9 9
4 6 2 3 4 4 2 4 3 3 2 5 6 7 11 7 4 4 4 6 7 7 5 6 6 5 9 10 11 11 11 11 10 11 17 19 18 17 16 18 12 6 8 9
3 3 2 3 2 1 1 4 4 5 3 9 1 4 8 4 5 7 5 6 8 8 8 8 11 9 6 9 13 12 9 10 9 10 14 13 12 18 18 17 11 11 14 11
2 2 2 2 1 4 9 3 3 3 3 5 4 9 12 11 9 8 6 4 6 7 8 10 11 9 7 5 10 10 11 10 11 12 9 9 8 9 15 18 16 16 20 17
2 2 2 2 1 0 1 3 7 5 6 3 5 11 12 13 9 9 7 5 4 4 4 6 7 7 8 7 8 12 13 11 9 9 7 5 5 8 12 17 21 25 26 23
2 2 1 3 2 1 5 4 6 5 3 2 6 9 11 10 12 10 8 8 8 7 6 4 3 4 6 8 9 9 9 10 8 7 6 4 5 5 9 18 23 26 26 24
2 1 1 3 2 2 3 3 5 2 5 7 9 8 10 13 11 11 9 8 8 9 8 7 6 6 6 7 8 7 7 8 9 9 7 6 6 7 12 16 17 22 23 23
2 1 1 2 2 1 2 1 2 3 5 6 10 10 9 11 12 11 8 9 8 7 6 5 6 6 5 8 7 4 3 7 9 9 8 9 11 12 13 16 16 14 15 14

GFSCGP_925_spd_051.txt.gz
Wind_Speed
14 13 17 21 18 21 14 11 8 2 5 9 12 12 8 13 7 10 13 15 14 15 16 17 16 14 13 13 12 11 11 9 6 5 3 1 3 9 10 8 8 6 10 16
7 15 19 20 11 10 10 10 10 6 2 9 7 10 10 2 7 7 12 15 16 16 15 16 16 15 14 13 12 10 10 10 7 4 1 2 3 5 5 8 6 6 8 10
14 10 19 6 10 11 14 15 12 9 8 11 8 12 9 9 6 6 8 12 16 17 18 15 18 16 15 13 12 11 12 10 7 5 3 3 7 3 7 7 7 7 7 7
12 13 5 9 15 15 16 16 15 5 9 13 8 7 12 13 11 11 9 11 12 17 16 16 16 16 14 12 11 11 13 12 10 8 6 6 8 6 6 3 3 4 4 3
14 13 10 14 17 15 16 4 8 12 13 15 9 7 6 7 7 7 2 0 11 17 16 16 15 16 14 12 12 13 13 12 11 10 8 8 8 7 5 5 3 3 3 2
19 3 13 17 15 11 14 7 7 10 13 13 12 11 7 3 8 4 8 4 10 15 15 15 16 15 14 14 13 13 14 12 12 10 9 8 7 3 3 3 5 3 4 1
14 12 12 12 7 13 11 13 9 11 12 12 4 3 8 6 8 4 5 7 9 13 14 13 15 17 17 16 14 14 14 13 12 11 11 8 6 6 6 5 1 3 4 4
12 14 17 13 18 12 15 17 11 12 8 5 8 5 4 9 6 5 7 8 12 11 12 14 15 17 18 17 15 14 15 14 14 14 12 8 9 8 5 2 2 4 4 4
6 15 17 16 15 17 16 16 18 11 11 9 8 11 10 8 8 5 10 10 10 10 11 13 15 17 18 17 16 14 13 13 13 14 13 10 10 7 6 4 3 4 2 4
9 10 11 14 9 9 13 7 12 8 11 12 8 2 8 9 10 10 10 9 9 9 10 11 13 17 16 15 14 12 13 13 13 12 10 9 7 6 6 5 3 5 3 3
16 8 11 11 13 15 11 12 10 15 7 6 6 6 13 9 12 11 8 8 9 9 9 9 12 16 16 15 13 11 11 11 10 10 8 3 11 10 7 6 6 5 4 3
18 8 13 13 15 20 20 16 16 10 12 7 11 1 9 11 8 10 9 7 4 4 6 9 11 15 14 14 14 11 10 10 10 11 14 10 12 7 8 7 7 6 5 4
14 10 12 16 10 8 12 16 10 12 11 12 7 6 10 10 11 8 10 7 5 4 6 7 9 11 12 15 18 12 11 11 12 13 12 12 10 10 9 8 7 7 7 6
7 12 13 12 15 13 19 18 18 16 13 11 13 11 5 8 12 9 9 7 7 5 6 8 9 11 11 16 15 13 13 13 15 14 13 11 11 10 9 8 7 7 7 7
9 12 16 19 18 14 10 15 18 17 18 17 2 15 4 9 11 10 8 7 6 5 6 8 8 10 17 14 16 14 14 15 17 15 12 13 11 11 10 10 9 8 7 7
16 13 15 18 18 19 13 15 7 14 19 22 8 14 4 10 9 8 7 6 5 4 4 5 7 11 18 14 15 15 17 18 16 16 14 9 10 11 10 9 8 7 7 6
12 13 14 17 18 19 18 16 14 11 11 11 11 20 15 14 9 7 6 5 4 3 3 4 6 10 15 16 14 14 16 17 16 14 13 12 12 12 11 9 9 9 7 7
10 12 12 14 16 22 12 19 19 15 15 12 12 11 7 7 9 9 3 5 4 4 1 3 6 10 13 15 14 14 16 16 13 12 13 13 13 11 10 11 10 8 8 7
13 10 12 13 16 13 8 6 12 13 14 10 16 13 14 13 12 9 8 5 4 4 4 3 7 4 13 13 14 16 16 18 15 13 13 14 13 12 13 11 10 8 8 9
11 11 12 12 19 16 15 15 9 11 8 6 2 10 11 12 6 8 9 8 4 3 2 1 4 6 11 13 15 14 15 16 18 14 13 13 13 13 15 16 14 12 9 11
11 10 15 14 12 6 9 10 5 14 4 4 6 10 11 6 6 10 9 8 7 5 2 2 2 6 10 11 12 12 13 14 14 15 13 14 14 16 15 14 17 16 14 15
13 12 13 15 5 6 2 5 8 6 4 6 9 6 10 11 8 6 8 7 5 6 5 4 4 6 7 5 10 10 11 7 6 8 10 13 14 15 15 14 15 16 13 16
4 5 3 8 6 4 8 12 9 5 5 4 7 7 9 10 9 7 6 5 5 5 6 6 8 7 5 3 3 7 5 5 6 7 8 12 12 13 14 16 17 19 18 14
4 3 1 5 8 7 7 11 11 7 6 4 4 6 7 8 6 6 6 4 5 4 3 4 8 6 5 4 3 3 4 6 6 7 6 5 6 7 6 6 11 15 25 20
7 4 3 0 4 3 12 12 8 9 6 5 6 3 5 8 8 6 7 6 5 5 3 4 5 4 4 4 5 3 2 2 4 6 8 8 7 7 11 9 12 13 21 26
7 5 1 4 7 5 8 6 3 5 5 5 7 8 7 9 10 8 7 8 6 6 4 5 5 4 3 3 3 2 3 3 4 6 8 8 7 4 6 6 5 8 10 14

GFSCGP_925_spd_054.txt.gz
Wind_Speed
15 12 16 20 18 21 23 14 10 19 27 6 13 12 13 11 10 13 18 20 17 15 14 18 14 14 15 15 14 16 14 12 9 6 6 1 1 4 8 7 5 7 12 11
14 16 18 21 21 23 19 26 23 23 20 4 12 10 8 15 11 6 14 21 18 17 16 17 18 15 14 17 15 15 17 15 12 6 7 3 2 4 5 3 4 5 5 5
16 15 17 20 19 12 14 11 13 12 4 6 11 9 11 12 10 5 1 8 17 17 18 16 17 17 15 17 18 16 15 13 11 8 6 6 7 4 4 5 5 4 4 5
15 15 12 11 10 15 14 13 13 14 10 7 5 10 9 6 14 10 9 10 15 15 18 16 16 17 16 16 18 17 16 14 13 12 10 10 10 9 8 5 2 4 3 3
13 14 13 11 13 13 17 12 15 19 10 12 11 9 10 8 25 7 10 9 1 16 20 17 16 19 17 16 16 16 15 14 13 12 10 11 8 7 5 6 4 3 4 3
15 15 13 11 12 14 12 15 12 7 10 12 15 12 8 11 22 8 12 7 7 15 15 17 19 20 16 15 15 18 15 15 13 11 9 11 8 2 5 5 3 5 5 8
15 17 9 14 16 17 12 13 8 8 10 13 16 15 4 11 9 7 11 11 9 15 14 15 14 15 15 15 15 17 16 15 12 11 10 9 6 5 5 4 2 2 7 9
12 15 18 13 15 9 11 16 11 12 9 4 14 8 4 13 11 8 3 6 12 13 13 15 14 15 15 15 15 14 16 14 12 11 10 8 3 3 4 4 6 6 11 7
14 17 13 18 13 16 14 12 18 19 17 9 7 10 14 8 10 8 10 10 12 9 12 10 15 16 15 15 13 14 15 11 10 9 9 5 1 3 4 8 5 4 8 9
18 10 14 17 14 15 18 11 11 11 12 14 7 9 11 4 11 10 11 13 10 8 10 11 11 15 17 16 14 16 13 9 7 8 7 4 3 6 4 4 5 8 7 8
14 12 15 11 10 14 10 11 10 14 11 2 4 5 1 15 15 11 12 11 9 9 10 8 11 18 17 19 15 21 14 9 8 9 7 8 20 11 7 8 6 7 7 7
13 8 13 18 16 14 17 14 16 10 10 6 9 15 16 21 11 13 12 11 10 8 10 9 9 17 19 17 20 20 14 11 9 8 8 6 12 15 9 9 7 5 8 7
10 10 12 14 14 14 15 19 13 13 10 13 3 2 6 13 9 12 11 9 5 3 6 8 8 14 17 21 19 17 14 10 7 7 9 12 10 9 9 9 8 8 7 6
7 8 9 14 14 11 14 15 15 16 8 11 11 12 13 15 23 14 8 8 8 5 6 6 7 14 19 20 19 18 14 10 10 9 9 7 7 8 9 8 7 6 6 7
6 9 13 14 19 18 17 16 19 18 16 16 12 10 12 8 23 22 22 6 7 7 6 8 8 13 20 19 18 14 13 14 14 13 10 7 6 8 7 7 6 6 5 6
11 8 11 17 18 20 22 20 7 17 18 17 9 8 9 11 18 13 22 5 6 4 7 9 7 10 13 19 17 18 16 14 15 14 11 8 12 10 8 6 5 5 4 5
10 10 10 14 16 18 18 19 16 17 11 14 16 10 14 8 19 22 10 7 6 8 5 6 7 8 13 16 17 22 22 19 17 15 14 12 11 10 8 5 5 6 6 4
8 9 8 11 14 18 16 17 20 18 14 6 17 20 19 18 15 7 5 7 7 7 5 5 4 15 16 15 13 13 18 19 17 18 17 15 14 17 16 12 12 11 7 7
12 9 9 12 14 17 18 16 22 15 17 15 22 16 11 16 17 9 11 10 10 8 7 9 8 8 19 18 17 15 15 16 14 17 14 15 16 16 16 14 14 10 9 10
16 10 11 12 15 20 12 13 23 16 7 22 23 14 4 7 11 11 11 9 10 9 6 4 4 1 17 17 16 16 15 15 14 13 16 16 15 14 17 16 15 13 10 12
14 11 14 14 14 17 12 15 12 8 3 4 20 20 24 10 7 11 8 12 16 14 5 4 4 1 8 13 12 10 11 14 14 14 16 18 18 15 16 17 16 15 12 10
8 5 13 13 16 19 18 10 7 6 10 7 8 20 19 16 14 11 9 11 10 12 7 5 5 7 10 7 11 10 10 9 7 9 14 14 18 16 15 16 17 17 16 14
4 3 2 12 3 5 5 4 13 2 4 7 6 15 16 15 16 13 11 11 8 9 9 8 8 5 6 7 7 4 5 6 5 1 4 7 11 16 14 14 15 17 17 16
11 4 2 16 1 7 5 12 10 21 6 8 0 6 11 13 13 12 9 8 8 7 9 13 9 6 6 6 7 5 5 4 2 3 5 6 7 7 9 8 13 18 19 17
3 9 15 14 16 13 7 2 13 19 8 5 4 10 10 12 10 11 10 8 10 6 5 8 7 4 3 3 3 2 2 3 3 4 5 5 4 4 7 8 10 11 14 24
2 1 4 8 24 7 10 5 12 11 8 10 11 11 10 11 10 14 10 10 11 9 7 8 5 4 6 3 3 2 1 2 4 4 5 7 8 7 5 8 9 9 13 19

GFSCGP_925_spd_060.txt.gz
Wind_Speed
3 2 6 12 8 6 4 3 4 5 5 2 7 6 10 8 13 12 12 14 13 11 17 25 31 29 30 28 30 25 23 19 15 11 5 2 2 7 5 6 5 3 5 8
6 5 12 9 8 7 7 3 7 4 6 3 9 15 8 13 18 13 18 14 14 15 13 17 26 30 31 32 29 27 23 18 15 11 7 4 4 5 6 3 2 1 3 5
7 14 3 5 10 6 6 8 5 9 4 4 3 7 5 4 11 10 10 14 16 20 15 15 19 25 28 31 32 29 23 17 15 12 9 7 5 7 7 6 2 4 3 3
7 15 9 9 9 9 5 13 11 16 3 7 7 6 6 4 11 13 12 12 14 7 10 12 15 20 25 30 32 27 21 18 15 13 10 8 9 7 5 6 6 5 7 5
12 6 5 4 9 7 9 9 13 9 6 6 5 2 6 3 6 11 13 16 13 10 13 15 17 26 25 28 31 26 20 18 14 13 8 6 9 3 7 7 7 8 9 9
9 5 4 7 6 5 5 4 8 6 5 2 5 5 4 7 19 6 6 16 17 14 14 10 10 16 22 26 30 22 16 16 15 12 9 8 6 4 10 7 6 6 11 10
6 9 6 5 4 7 7 7 3 4 5 5 3 1 8 5 7 9 14 16 14 18 13 13 9 10 18 23 27 19 19 17 14 13 8 5 6 6 3 4 5 11 17 10
3 8 3 5 7 8 5 8 6 5 3 6 3 5 3 5 6 6 5 11 15 14 14 16 13 17 20 20 23 20 20 17 12 11 8 5 2 4 9 10 10 12 11 9
6 8 2 4 3 9 8 1 6 7 1 4 4 6 6 5 5 11 14 11 14 14 17 17 10 19 23 24 22 21 20 16 12 12 11 8 2 1 8 11 11 11 11 9
7 4 7 14 1 6 9 5 0 3 3 4 5 4 5 3 4 20 15 13 13 26 29 4 7 18 21 25 20 23 19 19 15 14 11 7 6 5 9 10 12 12 11 12
7 6 17 2 3 7 1 2 4 5 5 5 3 6 6 5 5 12 13 12 19 11 27 22 10 20 23 26 25 23 20 21 19 17 13 11 8 12 14 12 13 12 12 11
9 7 8 12 4 5 6 7 6 5 7 2 4 5 7 6 7 5 10 16 22 23 25 16 15 21 24 26 28 26 22 22 20 17 15 12 18 12 12 10 10 12 11 9
5 1 3 9 7 6 3 4 2 1 4 6 6 5 3 5 3 3 7 5 6 1 11 8 11 16 21 24 27 26 24 24 22 16 14 21 17 15 14 10 12 10 12 11
5 3 7 6 5 4 4 5 4 6 2 2 5 4 5 9 7 6 7 8 6 7 10 13 11 12 17 21 27 26 25 26 23 23 26 20 17 16 14 13 12 10 9 12
5 1 2 5 6 3 2 6 9 2 6 4 10 11 10 16 13 12 15 13 1 6 10 14 13 10 18 20 22 22 25 27 28 28 24 19 17 16 14 13 15 16 12 12
6 3 5 5 6 6 3 8 7 8 3 6 13 2 7 6 7 7 7 6 6 7 13 13 13 15 17 20 22 23 27 27 29 25 23 19 17 16 15 14 13 13 14 13
3 3 4 4 5 6 4 4 4 4 5 8 6 9 18 13 13 13 9 7 13 11 15 15 14 17 21 25 26 25 26 29 28 24 21 19 17 20 18 15 14 14 12 12
2 2 2 3 5 1 8 5 3 2 1 9 10 20 30 25 21 13 9 11 8 8 8 12 14 18 23 26 27 29 29 30 26 23 21 19 20 21 20 17 16 14 12 9
5 4 2 2 3 5 7 6 7 6 7 9 5 11 12 11 4 6 13 7 7 7 7 14 23 24 25 28 32 33 30 29 24 23 22 21 23 22 20 19 17 15 13 11
5 4 5 1 1 2 2 11 11 2 4 14 4 4 6 7 3 4 10 6 9 10 16 13 20 25 25 28 30 29 27 27 26 25 23 22 24 24 23 20 17 15 15 13
4 3 5 3 4 3 11 17 7 2 7 20 10 2 7 5 3 2 10 10 20 5 13 13 16 19 25 33 34 27 22 23 24 22 23 24 26 24 22 21 18 17 15 14
2 2 2 1 2 4 20 6 7 5 9 13 7 6 7 3 4 8 7 10 8 8 11 17 18 17 14 24 30 26 26 22 20 19 23 26 25 23 22 24 19 18 18 17
3 3 2 3 3 3 6 13 3 2 3 10 14 5 4 5 5 6 6 10 6 7 6 11 18 19 16 14 18 17 10 18 17 15 20 24 23 23 20 17 17 18 20 22
2 2 3 3 1 3 5 6 2 4 3 7 10 10 5 5 4 6 9 8 2 10 4 6 11 13 13 15 17 17 13 10 11 13 13 14 14 13 13 13 15 18 21 23
2 3 1 1 4 3 2 5 2 4 6 6 4 5 12 14 4 2 6 8 16 8 5 7 10 11 11 11 13 12 10 8 9 9 9 8 8 7 7 7 9 12 13 17
1 4 3 3 3 2 6 6 7 4 5 6 6 14 11 8 14 8 9 16 21 16 12 11 12 13 12 11 9 9 9 7 7 9 7 6 6 7 6 6 6 8 11 15

GFSCGP_925_spd_066.txt.gz
Wind_Speed
2 4 4 7 6 3 2 3 6 6 7 6 11 15 13 10 11 13 15 14 12 16 14 17 20 21 24 26 28 26 23 21 18 16 14 8 8 7 6 6 7 8 12 14
5 3 8 3 3 3 4 4 11 10 8 6 4 16 5 8 14 20 17 14 14 8 7 10 17 22 27 27 29 26 25 26 23 17 15 7 8 7 5 6 7 8 8 11
7 5 6 5 4 4 4 5 7 10 3 1 2 8 3 6 9 8 10 9 9 10 12 8 13 24 26 29 30 27 25 23 23 18 14 10 9 7 8 8 7 7 9 9
5 4 7 4 6 8 4 10 12 7 3 4 1 5 6 5 9 9 10 12 14 12 7 7 10 18 26 29 15 22 21 24 14 17 15 14 13 10 10 9 7 8 9 8
8 5 5 5 7 8 11 4 6 1 4 2 1 4 8 2 6 9 12 11 13 15 11 10 6 11 17 16 23 34 17 42 28 20 17 17 11 12 10 9 9 9 9 9
8 3 6 8 5 9 2 4 7 5 3 2 3 6 6 4 5 9 3 7 6 5 6 8 14 12 11 18 26 34 11 31 28 23 20 13 10 13 11 12 12 11 11 11
3 4 4 4 3 1 4 6 3 3 4 6 2 3 9 6 6 7 12 3 8 12 10 11 14 17 15 9 25 27 20 24 30 27 19 12 12 12 14 14 13 13 12 12
6 7 7 4 7 6 3 7 6 6 4 5 3 5 6 6 5 6 4 4 10 12 10 8 10 17 21 19 23 19 21 16 20 20 15 12 12 11 9 11 14 12 12 10
5 6 4 5 4 7 3 3 4 7 3 3 3 7 9 5 5 8 9 12 11 10 8 9 5 13 12 10 10 24 26 20 16 17 14 12 10 9 9 12 12 12 12 11
6 3 4 4 4 4 3 6 3 3 3 4 5 4 6 6 2 7 6 6 6 8 8 9 9 10 19 18 11 6 12 16 16 13 11 11 10 6 10 14 11 10 11 11
6 5 6 1 3 7 2 1 6 5 4 6 3 6 8 7 3 7 5 6 8 8 7 5 4 17 14 15 12 15 12 18 18 18 15 13 10 13 15 12 11 11 11 10
6 6 5 12 2 1 3 5 6 5 4 2 4 6 2 4 4 6 9 9 7 4 4 5 8 13 18 28 11 25 19 21 23 22 16 13 16 16 14 14 14 13 11 10
5 1 1 8 6 2 4 4 5 5 3 5 6 6 2 3 4 6 10 10 9 4 3 4 5 5 8 24 36 29 24 21 21 19 17 17 18 17 14 13 15 13 10 10
7 2 6 8 8 4 3 4 4 6 4 5 5 6 7 8 9 6 8 8 5 4 6 5 6 5 9 17 22 22 27 24 22 19 18 19 18 16 15 15 15 13 13 10
4 2 1 1 2 3 3 3 5 3 6 5 4 6 7 8 8 7 7 3 4 6 7 8 4 5 7 7 11 20 24 22 22 21 19 19 17 15 14 14 13 13 10 11
4 1 2 5 5 5 3 8 2 3 3 3 2 4 1 5 2 3 7 10 10 13 9 8 9 5 1 8 15 21 25 24 21 20 18 19 17 15 12 13 13 11 12 11
3 3 3 2 4 4 5 7 3 5 6 3 2 4 12 14 8 6 7 7 8 11 8 12 14 11 7 12 16 19 24 25 26 21 22 20 18 17 15 14 13 13 12 12
3 3 2 3 2 3 5 5 8 12 8 8 5 7 10 12 8 4 1 7 6 4 5 6 4 8 13 17 17 14 21 24 21 21 23 22 20 18 17 16 15 14 13 13
1 4 3 3 3 2 4 4 4 4 2 11 10 12 10 12 1 5 12 2 3 4 4 9 16 14 14 14 15 13 14 18 19 23 24 23 22 20 19 19 19 16 15 15
5 5 4 2 3 5 3 4 3 1 1 3 7 7 10 8 6 3 11 5 2 5 4 8 11 13 16 14 15 4 15 19 23 22 26 22 22 22 23 22 20 18 16 17
3 3 4 2 3 2 4 10 3 3 3 4 5 6 6 4 3 8 5 5 3 5 8 14 16 13 12 18 18 23 19 24 23 23 25 21 24 24 24 24 22 20 20 18
2 2 1 2 3 2 6 2 5 1 4 4 5 6 8 7 7 4 5 4 3 2 9 13 12 10 14 21 22 24 28 24 18 21 22 22 25 26 24 27 22 20 18 17
2 3 4 3 4 2 1 3 3 2 3 4 3 6 6 7 5 9 6 6 5 5 2 4 6 9 9 11 16 13 18 22 18 22 21 22 25 25 27 26 21 19 19 18
3 2 3 2 3 4 3 3 2 2 3 6 6 7 5 6 7 7 7 7 7 12 9 9 9 11 8 11 14 14 10 12 17 18 20 18 27 24 23 20 16 18 21 22
3 1 3 1 2 3 3 4 4 5 4 2 3 4 6 6 9 9 8 8 9 9 7 7 8 7 9 13 14 15 12 11 12 11 9 11 11 12 12 12 12 15 14 13
2 5 3 4 5 4 3 3 3 4 5 5 4 6 4 6 11 11 7 11 8 8 6 2 3 3 5 10 18 18 14 11 11 12 13 11 12 12 11 10 7 4 2 1

GFSCGP_925_spd_072.txt.gz
Wind_Speed
12 12 15 18 16 17 10 11 16 14 4 11 15 13 12 10 10 12 12 13 17 20 17 20 20 20 18 17 14 12 12 10 9 4 7 10 9 7 6 6 4 4 7 14
11 17 18 6 11 11 16 16 19 16 9 10 13 12 14 14 12 11 13 14 16 17 16 18 21 21 21 16 13 16 17 14 15 9 26 13 5 4 7 7 6 6 7 11
20 18 9 11 13 15 17 18 17 17 11 10 14 16 15 11 6 8 10 10 15 17 18 18 18 21 22 19 17 18 17 10 10 11 12 10 3 4 8 9 8 8 8 11
17 19 11 12 15 15 17 14 14 17 17 15 10 12 7 7 9 5 3 8 12 16 17 17 18 20 20 21 19 8 6 2 5 12 12 13 7 7 8 10 9 8 9 9
16 13 14 19 20 14 15 6 9 12 14 16 16 9 14 4 9 7 5 4 7 13 15 17 18 19 21 24 22 16 16 14 21 22 20 17 12 9 9 10 10 10 9 10
20 6 10 16 15 14 6 8 10 9 13 15 20 12 14 11 2 6 2 7 8 6 8 13 16 25 27 30 34 29 28 35 14 18 17 17 14 10 9 11 11 10 9 10
17 17 14 10 11 12 10 13 10 11 11 14 5 8 13 12 6 8 9 10 8 2 7 11 15 22 29 33 29 13 24 25 5 14 14 13 9 6 9 10 11 10 8 8
18 17 20 16 20 15 18 16 11 13 12 12 7 9 11 2 4 5 6 6 3 5 9 11 17 23 24 30 21 21 32 16 5 6 13 10 6 4 6 6 8 9 8 5
12 18 4 14 17 18 13 10 15 13 10 9 9 6 7 13 10 11 5 3 6 8 10 12 14 19 21 24 19 17 19 7 2 1 7 8 9 8 4 3 4 6 10 13
14 12 10 10 9 7 14 8 10 10 16 10 10 7 9 9 9 5 2 5 7 9 11 12 10 18 20 22 17 13 15 10 4 4 7 9 8 6 3 3 6 9 10 14
14 10 10 9 12 14 12 13 12 11 5 9 9 7 4 4 7 8 5 6 8 10 11 12 12 14 14 13 14 17 15 8 2 7 7 7 7 7 6 7 8 10 12 12
19 11 14 14 6 4 9 16 20 12 14 12 10 11 7 5 4 4 4 4 7 8 9 10 12 13 11 7 8 11 15 11 11 8 7 7 8 10 9 9 9 9 10 10
10 13 13 17 9 7 11 13 11 10 8 12 10 7 5 8 8 5 1 6 7 7 9 9 9 10 14 13 13 15 17 16 14 13 11 11 11 11 9 8 8 9 10 10
4 7 14 15 17 15 19 17 14 14 11 13 13 6 9 10 11 10 2 3 7 9 8 8 8 9 16 16 16 13 16 17 16 14 12 13 14 12 10 9 9 8 8 8
5 7 9 15 9 8 12 19 15 16 18 10 10 8 8 9 12 9 5 3 7 9 9 7 8 10 13 15 20 18 18 20 20 17 15 14 14 12 10 10 10 9 8 8
1 2 4 7 7 11 12 10 13 14 6 6 5 11 8 6 8 10 10 2 7 9 11 8 7 10 13 18 21 21 20 20 22 22 19 17 16 15 13 11 11 9 8 8
1 1 5 7 5 9 11 3 9 6 3 3 7 7 6 7 8 12 10 8 3 6 7 9 8 9 14 17 19 21 18 17 20 21 22 20 19 16 14 13 12 9 7 10
2 1 3 1 7 12 8 4 2 6 5 4 6 5 6 7 4 10 11 10 8 3 6 8 8 14 14 15 15 12 13 16 19 20 20 20 20 18 15 13 12 9 11 12
2 5 3 6 9 4 5 4 3 5 8 6 5 7 9 9 3 9 15 12 11 10 10 9 8 14 18 20 15 13 15 17 20 22 22 24 23 20 18 16 15 12 13 12
3 4 7 4 10 10 10 5 1 3 7 6 6 8 10 10 7 10 15 14 11 9 9 11 9 7 10 17 19 18 18 19 21 20 19 21 24 24 21 19 17 16 14 13
3 4 11 9 9 4 4 3 3 9 4 6 7 8 9 7 7 10 12 13 12 11 12 10 5 3 5 10 14 15 15 18 18 17 18 22 21 20 20 19 18 17 16 14
4 4 5 5 8 8 3 4 4 5 2 6 7 9 8 8 9 12 13 13 12 12 9 10 11 12 5 4 8 10 12 11 12 15 19 22 22 22 21 19 18 17 18 17
3 4 3 5 4 6 7 8 5 5 5 8 8 8 9 10 11 12 13 14 12 14 15 13 10 8 5 5 5 10 10 10 10 15 18 21 21 20 19 21 21 19 17 17
3 1 2 5 5 7 7 7 6 7 7 7 8 8 8 10 12 11 10 11 11 13 12 13 12 12 12 10 9 10 10 9 11 15 17 18 19 19 18 18 19 18 16 16
5 5 3 10 8 8 6 6 5 6 5 6 6 7 8 9 9 11 11 9 11 14 13 11 9 8 8 6 10 11 10 12 14 17 16 17 19 18 15 17 16 15 14 15
1 5 3 4 6 6 7 6 4 5 6 7 8 8 8 8 9 10 10 11 13 12 12 10 10 9 6 3 3 4 6 8 13 16 16 16 14 11 9 9 6 9 11 11

GFSCGP_925_spd_078.txt.gz
Wind_Speed
18 15 16 21 20 21 18 20 21 18 16 15 11 12 12 14 13 13 15 18 17 18 19 23 25 24 25 26 25 24 22 22 18 16 15 15 15 18 12 11 8 6 6 6
19 20 21 21 21 20 18 19 17 19 15 16 16 19 11 18 15 9 12 16 21 19 18 20 26 25 27 27 26 25 23 24 18 18 20 16 12 13 7 8 9 6 7 9
22 21 22 23 17 18 18 15 17 16 17 16 16 19 11 17 17 17 11 8 17 18 18 20 21 27 27 27 28 26 26 20 17 16 13 9 6 8 8 9 11 10 9 8
22 23 23 21 21 16 20 15 19 18 15 12 14 14 15 17 14 15 7 8 7 17 15 19 22 25 28 27 28 27 24 15 17 17 11 12 10 9 5 13 17 16 12 9
24 22 20 20 19 18 17 15 18 16 15 16 16 10 14 5 16 9 9 12 2 3 15 20 23 28 27 26 25 25 12 9 10 15 15 14 11 11 11 6 12 14 13 10
26 23 20 19 17 20 13 16 18 14 15 13 16 15 14 15 7 10 10 6 9 6 4 14 28 31 26 26 25 21 15 6 5 9 10 12 4 6 6 5 4 9 9 13
26 27 23 21 14 14 16 17 12 13 12 13 19 17 12 9 14 13 12 10 6 5 4 9 19 18 24 27 21 17 13 5 4 6 9 9 7 6 7 7 4 8 8 10
21 22 25 24 18 14 19 18 13 14 14 15 15 13 12 19 12 17 7 6 6 4 4 8 20 17 25 24 18 17 11 6 4 4 5 7 7 7 5 8 7 8 8 8
20 26 22 26 22 18 19 16 16 18 19 14 13 6 7 9 6 7 8 14 11 11 6 10 18 20 20 20 19 19 11 10 6 4 6 7 7 5 6 7 7 6 7 10
23 23 26 23 23 24 21 15 14 12 16 16 15 13 6 15 10 17 15 13 11 10 8 14 13 17 18 19 20 21 15 13 8 2 5 9 8 8 5 7 8 9 9 11
25 19 22 22 19 20 15 17 17 18 12 12 13 3 9 11 10 13 14 13 12 12 10 11 12 14 16 17 21 22 17 22 18 15 10 10 11 10 8 9 11 10 11 10
26 18 15 25 15 24 17 17 20 12 13 13 13 7 10 3 5 15 14 14 13 13 11 11 12 14 16 18 20 19 16 14 8 11 14 12 11 10 12 12 14 14 13 12
10 13 13 18 18 13 17 21 17 17 13 18 13 3 8 7 7 9 14 13 12 14 13 8 10 10 14 17 19 19 18 15 12 9 11 14 13 14 13 15 14 14 14 12
7 9 9 13 17 13 13 21 20 16 9 14 16 13 6 4 9 1 12 12 12 11 12 10 7 6 10 9 11 13 17 17 15 16 16 14 15 15 14 14 14 14 13 12
5 9 13 16 21 20 17 14 20 18 19 16 7 9 17 15 16 8 8 10 11 11 11 9 8 7 8 9 12 14 17 18 18 18 15 14 13 14 13 12 12 14 13 14
18 10 11 17 16 18 16 17 18 20 22 20 16 14 21 15 10 8 1 8 11 10 12 10 8 8 8 12 13 15 16 17 19 19 18 20 16 18 17 16 15 14 14 14
9 11 8 15 18 18 14 18 22 11 8 11 16 15 13 14 10 12 5 5 7 7 8 10 9 8 12 15 16 15 17 19 19 19 18 23 22 20 19 18 17 15 14 13
5 10 10 10 11 15 10 23 19 4 19 11 26 23 15 4 10 12 9 8 10 11 11 12 7 4 9 14 17 15 17 19 21 21 20 23 22 21 21 20 19 18 17 15
13 10 9 9 11 7 12 11 15 31 17 17 10 31 29 21 17 10 8 10 10 7 7 11 13 14 19 10 12 20 20 20 22 23 23 22 23 22 22 23 21 19 18 16
13 7 8 10 12 6 5 6 16 25 8 15 16 15 10 17 12 8 9 9 8 11 10 7 8 15 15 15 18 14 21 23 23 21 21 22 23 22 22 22 21 19 18 17
10 11 14 12 10 5 6 7 13 11 5 11 12 14 15 13 8 8 8 7 9 10 9 12 15 12 11 13 11 11 17 23 36 29 28 27 25 23 22 22 21 20 19 18
2 3 10 13 13 10 9 11 5 5 5 12 10 12 11 11 10 9 10 10 11 10 13 12 10 9 7 10 7 3 8 29 47 64 33 29 27 23 20 20 21 20 20 20
6 5 5 7 6 11 14 14 9 9 11 8 10 9 12 10 9 11 10 11 11 13 14 15 14 11 8 11 12 5 7 15 26 21 33 27 24 22 20 22 20 21 21 20
11 9 3 3 9 12 13 14 12 10 8 8 9 11 10 9 9 10 10 8 10 14 16 17 16 18 17 15 13 12 13 14 14 8 13 20 14 17 20 20 22 20 20 21
2 7 7 2 7 16 11 13 13 13 11 10 11 12 11 9 10 9 8 9 10 15 16 18 18 18 17 20 21 20 14 14 15 16 15 9 11 20 19 19 18 20 21 20
3 4 3 1 19 14 10 11 14 12 10 11 11 10 9 10 7 11 9 13 14 15 17 16 18 15 18 19 20 22 21 19 18 13 9 12 14 19 20 20 14 10 11 7

GFSCGP_925_spd_081.txt.gz
Wind_Speed
12 5 7 13 13 16 17 18 17 14 14 4 5 5 6 10 9 14 18 20 19 21 16 30 33 34 35 38 38 34 30 27 28 27 22 19 20 10 16 17 16 18 18 11
7 13 14 15 17 18 19 18 18 13 10 6 8 10 8 9 7 7 14 21 22 18 18 19 28 31 34 37 40 36 31 27 28 29 22 21 22 15 16 15 16 18 14 9
14 16 17 19 18 20 14 8 8 7 11 9 7 8 7 10 7 8 7 22 22 22 21 18 19 29 31 35 39 39 34 28 21 21 20 14 11 13 13 13 20 15 13 11
13 16 20 19 16 17 10 11 14 7 8 5 4 7 8 8 11 9 10 11 18 19 18 16 18 21 31 33 37 37 33 25 21 20 15 16 16 12 19 19 20 16 15 13
17 21 19 20 21 15 9 7 6 6 7 4 8 2 8 8 6 6 5 12 17 17 23 23 21 28 30 33 34 34 27 24 20 19 15 12 15 15 13 14 17 22 19 15
21 20 18 16 16 12 8 8 6 3 2 5 9 5 9 7 7 4 14 10 9 8 12 19 22 26 28 31 32 31 28 20 18 13 11 14 11 11 6 7 14 22 18 15
19 18 21 16 14 11 7 4 2 4 4 7 10 5 16 10 9 9 9 10 8 9 12 14 16 16 25 29 28 29 23 18 13 13 10 10 9 10 9 7 11 16 15 15
15 14 16 22 15 9 7 9 6 7 5 14 4 8 17 16 11 9 12 11 9 9 14 17 18 16 26 26 27 26 23 17 13 11 7 8 8 9 8 7 10 13 14 12
16 18 13 21 20 14 7 7 7 5 8 4 6 10 7 13 9 3 8 10 9 10 18 20 17 21 23 24 26 24 20 16 15 13 9 6 11 8 5 7 11 11 12 11
15 15 10 14 11 17 11 8 3 2 5 6 7 4 4 4 10 15 13 9 11 16 17 17 16 21 22 25 25 22 20 17 14 14 13 12 13 9 8 10 11 12 14 14
12 11 9 14 17 14 6 6 5 4 5 6 4 4 3 7 13 10 10 9 10 16 16 14 14 22 25 26 26 25 21 21 16 15 10 10 11 13 13 12 14 13 13 14
9 8 6 14 16 13 9 13 11 6 9 4 5 6 8 7 10 10 9 8 9 11 13 14 12 17 22 23 26 25 20 21 17 14 10 11 14 15 15 14 14 13 14 12
6 5 6 11 10 9 5 11 9 7 4 9 5 4 10 9 13 15 9 6 7 7 10 13 11 9 16 21 25 25 22 20 20 14 12 12 11 13 17 16 15 14 14 14
5 4 2 6 9 6 6 10 8 7 6 8 6 4 5 7 8 19 17 6 7 7 9 7 8 7 16 21 24 26 25 22 19 15 15 15 14 13 16 14 15 15 17 16
5 5 10 9 7 7 13 2 12 7 6 6 8 9 7 8 6 10 11 14 6 7 7 7 6 6 10 19 19 22 21 20 20 18 20 17 17 16 16 17 16 14 16 16
5 6 10 7 8 10 7 13 20 17 11 8 8 4 6 5 4 9 11 11 8 7 7 8 7 7 8 15 17 16 17 18 23 21 20 18 20 21 20 19 18 18 18 19
4 3 5 6 19 15 3 3 4 5 28 2 4 5 7 6 8 6 9 15 18 13 13 10 3 5 15 18 18 18 17 17 17 18 19 21 23 23 23 22 20 20 20 19
5 4 3 4 9 5 3 3 14 14 28 15 20 16 10 6 8 11 10 14 15 13 10 8 7 13 20 7 20 20 21 20 18 17 19 18 25 23 21 22 22 22 21 20
4 5 4 4 5 10 6 6 3 6 13 20 21 17 8 11 12 9 14 16 12 10 6 5 14 14 15 18 13 18 21 22 22 16 2 17 7 19 20 22 24 24 23 21
6 4 5 7 5 7 2 8 7 7 7 11 7 24 14 9 6 8 11 10 8 9 10 10 14 17 20 19 17 13 9 6 9 6 8 16 23 26 23 42 28 28 28 27
5 5 0 3 5 6 10 8 8 1 7 15 17 6 13 1 2 5 11 10 13 13 11 8 10 11 14 17 14 11 3 4 5 3 12 13 15 25 31 40 47 36 32 29
5 5 4 5 5 6 19 7 5 5 8 14 17 14 8 9 5 3 5 6 7 8 14 18 12 16 15 14 15 11 9 6 3 11 6 15 29 47 46 48 47 38 34 31
3 2 1 2 4 9 18 6 7 5 15 12 14 10 8 9 9 7 4 5 6 13 17 19 16 18 21 18 17 15 14 12 12 14 12 13 25 44 16 33 39 33 34 28
2 2 2 2 5 2 4 11 6 3 7 7 12 10 9 8 10 6 5 5 6 12 14 15 16 16 17 20 19 16 16 14 14 13 14 12 6 9 5 18 30 29 28 26
3 2 3 4 6 1 10 17 8 5 8 11 8 8 9 8 8 8 7 6 8 11 15 15 15 15 16 17 19 21 20 17 17 17 14 9 23 26 28 21 19 25 30 32
2 2 2 1 7 4 3 3 10 7 7 8 7 9 11 9 8 8 6 10 11 11 14 11 13 15 15 17 18 19 22 23 22 21 19 18 17 17 15 11 11 12 13 12

GFSCGP_925_spd_084.txt.gz
Wind_Speed
7 1 7 12 10 9 8 9 13 18 22 4 13 9 7 11 14 17 20 20 21 23 21 28 27 32 35 40 42 41 39 35 30 26 24 22 24 22 20 18 16 17 17 18
1 10 16 13 9 11 12 13 18 19 18 7 8 8 9 8 9 12 20 20 23 19 14 17 26 30 36 40 44 41 40 36 33 30 29 25 25 19 18 12 15 16 19 18
13 20 12 10 13 13 13 8 15 14 19 3 1 8 7 8 3 6 10 22 23 22 19 16 19 28 34 37 39 41 41 37 36 31 29 22 17 18 16 17 17 17 17 19
14 16 11 12 14 11 10 17 16 16 6 6 4 5 8 8 10 7 11 12 18 21 18 17 19 24 35 37 39 39 38 37 35 31 30 27 20 17 19 18 19 18 18 17
16 14 9 10 18 12 12 16 17 17 5 3 7 3 8 4 8 6 7 13 19 22 20 19 21 30 31 34 36 36 37 35 33 31 29 23 18 17 15 15 19 21 20 17
12 10 14 19 20 12 13 6 1 4 4 3 5 4 12 5 6 5 5 10 18 21 20 22 18 23 27 28 31 34 33 35 31 29 26 19 16 14 16 13 20 24 24 18
5 6 11 12 8 11 3 5 5 3 3 7 4 1 14 11 7 8 10 12 19 23 23 12 16 17 25 29 26 30 33 32 29 27 20 17 18 15 15 12 13 16 20 20
6 11 8 13 10 11 8 8 6 7 4 7 6 6 15 11 19 16 8 11 9 13 14 14 17 18 26 28 29 30 31 24 20 18 15 14 11 6 17 14 14 17 19 19
5 13 6 11 16 8 10 4 9 6 2 3 3 9 10 8 1 11 9 8 9 10 12 16 16 21 25 26 29 34 29 21 18 15 13 11 5 7 22 9 13 15 13 14
1 4 11 19 9 17 8 4 1 2 3 7 5 5 6 7 4 8 8 10 6 11 14 12 13 17 21 24 29 29 24 19 17 17 16 14 10 19 11 9 12 11 10 11
6 6 13 8 9 12 2 3 2 3 5 6 2 6 4 9 3 8 6 7 11 12 13 13 13 19 22 24 28 26 22 22 21 18 16 13 12 12 8 9 8 9 9 11
4 2 5 18 16 8 11 11 7 6 7 3 5 5 4 6 4 10 9 7 9 8 9 12 13 19 20 21 24 25 24 22 19 19 14 13 12 11 11 9 11 8 9 10
6 2 5 8 9 4 5 6 6 5 3 8 6 6 3 4 9 10 15 13 9 8 7 3 10 9 14 17 21 23 23 23 18 14 14 13 14 15 17 14 13 12 12 12
10 1 5 4 10 8 5 3 7 7 2 5 7 5 3 2 11 7 10 13 10 11 8 3 7 9 14 20 24 27 23 21 19 16 13 15 15 17 17 16 14 14 13 14
4 4 1 7 5 8 5 4 7 11 3 3 8 11 4 8 11 9 9 9 12 13 12 7 6 7 14 19 23 26 25 22 21 20 15 13 13 12 15 15 13 13 15 16
2 7 4 6 12 13 8 15 12 10 6 3 2 2 6 4 5 13 15 12 10 10 13 11 11 11 11 18 22 24 26 23 20 18 14 14 13 14 16 17 16 16 16 16
4 2 1 5 6 6 9 8 9 7 7 3 2 4 8 10 3 4 5 6 7 6 6 7 6 5 8 19 24 23 23 20 18 18 16 16 15 16 16 16 17 17 16 17
8 5 1 3 4 5 4 7 15 13 4 8 7 15 17 14 10 15 10 7 7 7 9 10 9 13 11 8 16 19 20 23 21 17 10 10 10 6 4 3 6 13 19 20
6 5 3 2 2 6 5 6 5 6 2 5 6 13 15 19 22 15 18 14 6 5 10 8 15 17 14 10 10 18 17 15 17 16 13 12 12 14 15 17 5 13 14 18
4 5 4 2 5 4 7 10 5 3 5 8 2 1 19 17 11 16 12 10 13 14 14 13 22 19 16 14 10 13 12 15 17 16 14 12 13 17 19 21 31 38 37 21
5 4 3 4 2 3 7 13 3 4 7 5 4 8 8 8 14 13 12 12 12 17 18 16 21 20 17 16 15 14 11 8 7 8 10 11 12 11 16 26 34 46 51 39
2 4 3 2 3 2 13 6 4 6 8 4 2 1 10 12 12 6 7 5 9 11 19 23 19 18 19 20 18 15 12 2 4 7 12 15 14 15 17 26 34 46 50 28
3 3 2 3 4 5 5 2 9 18 15 11 3 5 9 9 3 6 12 9 11 16 19 19 16 16 16 17 15 12 11 7 8 10 14 19 22 20 18 23 17 11 10 22
2 2 2 2 2 1 2 5 10 18 17 14 5 7 9 8 6 7 12 9 10 16 14 11 13 13 14 16 15 13 12 11 11 12 14 14 15 22 25 29 23 10 6 19
3 1 2 2 3 8 2 6 11 13 11 5 5 5 8 10 8 9 7 7 8 8 9 12 12 12 13 13 16 19 17 18 15 14 15 14 12 12 14 13 16 11 6 8
3 5 3 3 6 4 7 7 4 10 11 4 12 11 7 8 7 7 6 8 7 7 11 12 12 11 11 11 12 13 14 16 19 19 20 18 15 13 12 14 11 2 9 7